www.pogodaiklimat.ru

Погода и климат >> Архив погоды >> Россия >> Хабаровский край >> Советская Гавань


ПОГОДА в Советской Гавани

  • Прогноз погоды в Советской Гавани
  • Монитор погоды в Советской Гавани
  • Климат города

АРХИВ ПОГОДЫ в Советской Гавани

Время (UTC), дата Ветер
(напр.,м/с)
 
Видим.   Явления Облачность Т
(С)
Тd
(С)
f
(%)
Тe
(С)
Тes
(С)
Комфортность P
(гПа)
Po
(гПа)
Тmin
(С)
Tmax
(С)
R
(мм)
R24
(мм)
S
(см)
15 8.11 ЮЗ 2 28 км 3/0
[Ci fib]
-2.9 -7.1 73 -7 -7 1028.1 1025.4
18 8.11 ЮЗ 2 40 км ясно -4.7 -7.5 81 -9 -9 1028.5 1025.7
21 8.11 З 2 45 км 8/3 600 м
[Sc Ac trans Ci fib]
-5.7 -7.8 85 -10 -10 1028.4 1025.6 -5.7
00 9.11 ЮЗ 2 20 км 10/8 600 м
[Sc Ac lent]
-3.6 -8.1 71 -7 -7 1028.8 1026.1 -6.0
03 9.11 штиль 0 20 км 10/10 600 м
[Sc]
0.0 -6.0 64 -1 -1 1026.0 1023.3
06 9.11 штиль 0 10 км слабый ливневой дождь 10/8 600 м
[Cb cap Ac lent]
+1.1 -2.3 78 0 0 1023.5 1020.8
09 9.11 ЮВ 4 4000 м слабый ливневой дождь 10/10 300 м
[Cb cap]
+6.5 +5.6 94 +3 +3 1021.1 1018.5 +6.6 8
12 9.11 В 6-12
{12}
2700 м ливневой дождь 10/10 300 м
[Cb cap]
+5.7 +4.8 94 +1 +1 1019.2 1016.6
15 9.11 В 6-12
{14}
2100 м ливневой дождь 10/10 300 м
[Cb cap]
+6.3 +5.4 94 +1 +1 1017.0 1014.4
18 9.11 СВ 6-10
{12}
2200 м ливневой дождь 10/10 300 м
[Cb cap]
+6.0 +5.8 99 +1 +1 1014.0 1011.4
21 9.11 В 2 3800 м слабый ливневой дождь 10/10 300 м
[Cb cap]
+7.4 +6.8 96 +5 +5 1011.6 1009.0 +5.7 44
00 10.11 ЮВ 4-10
{16}
4000 м слабый ливневой дождь 10/10 300 м
[Cb cap]
+9.0 +8.2 95 +6 +6 1010.6 1008.0
03 10.11 В 2
{10}
10 км {ливн. осадки} 10/10 300 м
[Cb cap]
+10.2 +9.5 95 +9 +9 1009.9 1007.3
06 10.11 ЮВ 2 10 км {ливн. осадки} 9/9 300 м
[Cb cap]
+9.5 +8.3 92 +8 +8 1009.8 1007.3
09 10.11 Ю 2 12 км 10/8 300 м
[Cb cap Ac lent Ci fib]
+7.9 +5.4 84 +6 +6 1010.1 1007.5 +10.6 3
12 10.11 штиль 0 11 км 10/8 300 м
[Cb cap Ac As]
+6.9 +4.1 82 +6 +6 1010.3 1007.7
15 10.11 штиль 0 10 км {ливн. осадки} 10/8 300 м
[Cb cap Ac As]
+4.7 +4.0 95 +4 +4 1010.0 1007.4
18 10.11 ЮЗ 2 12 км {ливн. осадки} 10/10 300 м
[Cb cap]
+4.3 +3.9 97 +1 +1 1010.3 1007.7
21 10.11 штиль 0 15 км 10/8 300 м
[Cb cap Ac As]
+4.0 +2.1 87 +3 +3 1011.6 1009.0 +3.8 0.0
00 11.11 ЮЗ 2 4000 м 10/8 300 м
[Cb cap Ac As]
+4.9 +0.6 74 +2 +3 1012.3 1009.7
03 11.11 СЗ 4
{10}
50 км слабый ливневой дождь 10/8 300 м
[Cb cap Ac As]
+4.8 +0.5 74 +1 +1 1012.3 1009.7
06 11.11 СЗ 6-10
{10}
50 км слабый ливневой дождь 10/8 300 м
[Cb cap Ac As]
+4.8 +0.5 74 -0 -0 1012.8 1010.2
09 11.11 СЗ 4
{10}
30 км {ливн. осадки} 10/10 600 м
[Cb cap]
+4.6 -1.0 67 +1 +1 1013.8 1011.2 +5.4 0.4
12 11.11 З 2 35 км {ливн. осадки} 10/10 600 м
[Sc]
+4.2 -1.8 65 +2 +2 1013.8 1011.2
15 11.11 З 2 35 км 10/6 600 м
[Sc Ci fib]
+3.6 -1.7 68 +1 +1 1013.4 1010.8
18 11.11 З 4 15 км слабый ливневой дождь 10/10 600 м
[Cb cap]
+3.6 -1.4 70 -1 -1 1013.6 1011.0
21 11.11 СЗ 4
{10}
40 км 10/4 600 м
[Sc Ac trans Ci fib]
+2.9 -1.4 73 -2 -2 1013.6 1011.0 +2.9 0.0
00 12.11 З 6 20 км в посл. час дождь 10/4 600 м
[Sc Ac As]
+3.3 -0.6 76 -2 -2 1013.9 1011.3 +2.9
03 12.11 СЗ 8-12
{12}
20 км 10/3 600 м
[Sc Ac As]
+3.9 -0.5 73 -2 -2 1013.3 1010.7
06 12.11 СЗ 6-8
{12}
50 км 10/6 600 м
[Sc Ac As]
+4.4 -0.7 69 -1 -1 1013.5 1010.8
09 12.11 СЗ 2 18 км в посл. час ливневой дождь 10/10 600 м
[Cb cap]
+3.2 -0.5 77 0 0 1013.8 1011.2 +4.4 0.0
12 12.11 З 2 16 км {ливн. осадки} 10/5 600 м
[Sc Ci fib]
+1.9 -1.9 76 -1 -1 1013.9 1011.3
15 12.11 З 2 21 км 8/3 600 м
[Sc Ci fib]
+1.1 -3.6 71 -2 -2 1013.6 1011.0
18 12.11 З 2 25 км 8/0 600 м
[Ci fib]
+1.1 -4.1 68 -2 -2 1013.6 1011.0
21 12.11 З 2 18 км 10/4 600 м
[Sc Ci fib]
+0.9 -4.4 68 -2 -2 1013.9 1011.3 +0.8
00 13.11 З 2 50 км 10/3 600 м
[Sc Ac As Cc]
+2.4 -6.1 53 -0 0 1014.8 1012.2
03 13.11 З 8-12
{18}
50 км 10/3 600 м
[Sc As trans Ci fib]
+2.9 -6.4 50 -3 -3 1014.1 1011.5
06 13.11 З 10-16
{18}
50 км 10/3 600 м
[Sc Ac trans Cc]
+2.7 -6.4 51 -4 -4 1015.0 1012.3
09 13.11 З 12-18
{18}
50 км 4/1 600 м
[Sc Ci fib]
+1.8 -7.2 51 -6 -6 1016.1 1013.4 +3.2
12 13.11 СЗ 10-16
{18}
50 км 4/0
[Ci fib]
+1.6 -7.0 53 -5 -5 1016.6 1013.9
15 13.11 СЗ 10-14
{16}
40 км 8/0
[Ci fib]
+1.3 -7.2 53 -6 -6 1017.1 1014.4
18 13.11 В 2
{14}
45 км 10/0
[Ac trans Ci fib]
+0.1 -7.9 55 -3 -3 1017.8 1015.1
21 13.11 СЗ 6 45 км 10/1 600 м
[Sc Ac trans Ci fib]
+1.1 -6.9 55 -5 -5 1017.5 1014.9 0.0
00 14.11 СЗ 4
{14}
50 км 6/0
[Ci fib]
+1.8 -8.5 46 -2 -2 1019.2 1016.2 -0.5
03 14.11 СЗ 6-10
{10}
50 км 6/3
[Cb cap Ac trans Cc]
+4.5 -8.7 38 0 +1 1018.0 1015.0
06 14.11 СЗ 8-10
{12}
50 км 4/0
[Ac lent Ci fib]
+3.7 -5.9 49 -2 -2 1018.4 1015.8
09 14.11 СЗ 2
{14}
50 км 10/0
[Ac lent Ci fib]
+2.0 -6.2 55 -1 -1 1019.4 1016.8
12 14.11 З 2 50 км 10/1 600 м
[Sc Ac trans Ci fib]
+1.2 -6.5 56 -2 -2 1020.0 1017.3
15 14.11 З 2 45 км 10/3 600 м
[Sc Ac trans Ci fib]
+0.9 -6.9 56 -2 -2 1020.3 1017.7
18 14.11 ЮЗ 2 40 км 10/3 600 м
[Sc Ci fib]
+0.2 -7.7 55 -3 -3 1020.8 1018.1
21 14.11 З 2 40 км 10/0
[Ac lent Ci fib]
-0.1 -6.1 64 -3 -3 1020.6 1017.9 -0.1
00 15.11 З 2 50 км 3/1 600 м
[Sc Ci fib]
+2.4 -5.6 55 -0 +1 1021.2 1018.5 -0.2
03 15.11 С 2 50 км 10/0
[Ci fib]
+5.3 -6.0 44 +3 +6 1019.8 1017.2
06 15.11 В 2 50 км 10/0
[Ci fib]
+3.4 -3.6 60 +1 +1 1019.5 1016.9
09 15.11 штиль 0 40 км 10/0
[Ci fib]
+0.5 -2.6 80 -1 -1 1019.4 1016.8 +6.0
12 15.11 ЮЗ 2 45 км 10/0
[Ci fib]
-1.9 -3.5 89 -6 -6 1018.7 1016.0

 

Местоположение метеостанции Советская Гавань (Хабаровский край, Россия): широта 49.00 долгота 140.30 высота над уровнем моря 24 м.

В архиве по умолчанию представлена погода в Советской Гавани за последнюю неделю. Архивные данные за месяц целиком и за предыдущие месяцы, начиная с января 2011 года, Вы можете получить, выбрав интересующий диапазон дат из раскрывающегося списка и нажав кнопку "Ввод!".


*Определитесь, кто Вы:
робот инопланетянин человек

Внимание! Время в таблицах - всемирное. Для получения местного времени необходимо прибавить поправку, которая в Советской Гавани равна 10 ч.

Смотрите также архив погоды в соседних городах и на ближайших метеорологических станциях:

Погода в Тумнине (Хабаровский край, Россия) (75 км)
Погода в Мопау (Хабаровский край, Россия) (103 км)
Погода в Углегорске (Сахалинская область, Россия) (124 км)
Погода в Солекуль (Хабаровский край, Россия) (169 км)
Погода в Пильво (Сахалинская область, Россия) (175 км)
Погода в Ильинском (Сахалинская область, Россия) (180 км)
Погода в Макарове (Сахалинская область, Россия) (181 км)
Погода в Сегжеме (Хабаровский край, Россия) (203 км)
Погода в Поронайске (Сахалинская область, Россия) (205 км)
Погода в Оноре (Сахалинская область, Россия) (209 км)

Пояснения к столбцам:

Ветер - указаны скорость ветра в м/с - средняя за 10 мин, порывы в срок и между сроками (в фигурных скобках) и направление, откуда дует ветер: С - северный, СВ - северо-восточный, В - восточный, ЮВ - юго-восточный, Ю - южный, ЮЗ - юго-западный, З - западный, СЗ - северо-западный.
Видимость - горизонтальная дальность видимости в метрах или километрах. При видимости от 1 до 10 км при отсутствии осадков обычно наблюдается дымка, при ухудшении видимости до 1 км и менее - туман. В сухую погоду видимость может ухудшаться дымом, пылью или мглою.
Явления - указаны атмосферные явления, наблюдавшиеся в срок или в последний час перед сроком; фигурными скобками обозначены явления, наблюдавшиеся между сроками (за 1-3 часа до срока); квадратными скобками обозначены град или гололедные отложения с указанием их диаметра в мм.
Облачность - указаны через наклонную черту общая и нижняя облачность в баллах и высота нижней границы облаков в метрах; квадратными скобками обозначены формы облаков: Ci - перистые, Cs - перисто-слоистые, Cc - перисто-кучевые, Ac - высококучевые, As - высокослоистые, Sc - слоисто-кучевые, Ns - слоисто-дождевые, Cu - кучевые, Cb - кучево-дождевые. Подробнее классификацию облаков см. в Атласе облаков (PDF).
T - Температура воздуха - температура, измеренная на высоте 2 м над землей.
Td - Температура точки росы - температура, при понижении до которой содержащийся в воздухе водяной пар достигнет насыщения.
f - Относительная влажность воздуха - влажноcть воздуха, измеренная на высоте 2 м над землей.
Te - Эффективная температура - температура, которую ощущает одетый по сезону человек в тени. Характеристика душности погоды. При расчете учитывается влияние влажности воздуха и скорости ветра на теплоощущения человека.
Tes - Эффективная температура на солнце - температура, которую ощущает человек, с поправкой на солнечный нагрев. Характеристика знойности погоды. Зависит от высоты солнца над горизонтом, облачности и скорости ветра. Ночью, в пасмурную погоду, а также при ветре 12 м/с и более поправка равна нулю.
P - Атмосферное давление - приведенное к уровню моря атмосферное давление.
Po - Атмосферное давление - измеренное на уровне метеостанции атмосферное давление.
Tmin - Минимальная температура - минимум температуры воздуха на высоте 2 м над землей.
Tmax - Максимальная температура - максимум температуры воздуха на высоте 2 м над землей.
R - Количество осадков - Количество выпавших осадков за период времени, мм. При наведении курсора мыши на число - период времени, за который выпало указанное количество осадков.
R24 - Количество осадков - Количество выпавших осадков за 24 часа, мм.
S - Снежный покров - Высота снежного покрова, см. При наведении курсора мыши на число - состояние снежного покрова и степень покрытия местности в баллах.